Terug naar catalogus

COSMOS 1562

ActiefMilitairLEO
NORAD 15001·PAYLOAD·🇷🇺 Russia

Gelanceerd May 28, 1984 vanaf Plesetsk Cosmodrome

Loading…

Volgende Passages (komende 24 uur)

TLE

VersSource: Space-Track

Epoch: Sep 14, 2026, 19:31 UTC

1 15001U 84052D   26257.81335921 -.00000006  00000-0  65990-4 0  9990
2 15001  74.0128 196.9718 0015323 345.5279  41.5839 12.49966711929984

Volg COSMOS 1562 in realtime met AllMySat

Download on the App Store